Time,TemperatureF,DewpointF,PressureIn,WindDirection,WindDirectionDegrees,WindSpeedMPH,WindSpeedGustMPH,Humidity,HourlyPrecipIn,Conditions,Clouds,dailyrainin,SoftwareType,DateUTC
2013-01-09 00:00:00,54.9,52.3,30.30,ENE,60,0.0,0.0,91,0.00,CLR,,0.00,WeatherDisplay:10.37,2013-01-09 05:00:00,
2013-01-09 00:03:00,54.9,52.3,30.30,ENE,61,0.0,0.0,91,0.00,CLR,,0.00,WeatherDisplay:10.37,2013-01-09 05:03:00,
2013-01-09 00:08:00,55.1,52.5,30.30,ENE,61,0.0,0.0,91,0.00,CLR,,0.00,WeatherDisplay:10.37,2013-01-09 05:08:00,
2013-01-09 00:13:00,55.3,52.7,30.30,ENE,60,0.0,0.0,91,0.00,CLR,,0.00,WeatherDisplay:10.37,2013-01-09 05:13:00,
2013-01-09 00:18:00,55.4,52.8,30.30,NE,56,4.0,4.0,91,0.00,CLR,,0.00,WeatherDisplay:10.37,2013-01-09 05:18:00,
2013-01-09 00:23:00,55.5,52.9,30.30,NE,55,0.0,0.0,91,0.00,CLR,,0.00,WeatherDisplay:10.37,2013-01-09 05:23:00,
2013-01-09 00:28:00,55.5,52.9,30.29,NE,52,1.1,0.0,91,0.00,CLR,,0.00,WeatherDisplay:10.37,2013-01-09 05:28:00,
2013-01-09 00:33:00,55.6,53.0,30.29,NE,52,0.0,0.0,91,0.00,CLR,,0.00,WeatherDisplay:10.37,2013-01-09 05:33:00,
2013-01-09 00:38:00,55.5,52.9,30.29,NE,52,0.0,0.0,91,0.00,CLR,,0.00,WeatherDisplay:10.37,2013-01-09 05:38:00,
2013-01-09 00:43:00,55.5,52.6,30.29,NE,55,3.5,0.0,90,0.00,CLR,,0.00,WeatherDisplay:10.37,2013-01-09 05:43:00,
2013-01-09 00:48:00,55.5,52.9,30.29,NE,51,4.6,0.0,91,0.00,CLR,,0.00,WeatherDisplay:10.37,2013-01-09 05:48:00,
2013-01-09 00:53:00,55.5,52.9,30.29,NE,54,3.5,3.5,91,0.00,CLR,,0.00,WeatherDisplay:10.37,2013-01-09 05:53:00,
2013-01-09 00:58:00,55.5,52.9,30.28,NE,43,3.5,0.0,91,0.00,CLR,,0.00,WeatherDisplay:10.37,2013-01-09 05:58:00,
2013-01-09 01:03:00,55.5,52.9,30.28,NE,43,0.0,0.0,91,0.00,CLR,,0.00,WeatherDisplay:10.37,2013-01-09 06:03:00,
2013-01-09 01:08:00,55.5,52.9,30.28,NE,43,0.0,0.0,91,0.00,CLR,,0.00,WeatherDisplay:10.37,2013-01-09 06:08:00,
2013-01-09 01:13:00,55.4,52.8,30.29,NE,42,0.0,0.0,91,0.00,CLR,,0.00,WeatherDisplay:10.37,2013-01-09 06:13:00,
2013-01-09 01:18:00,55.5,52.9,30.28,NE,43,0.0,0.0,91,0.00,CLR,,0.00,WeatherDisplay:10.37,2013-01-09 06:18:00,
2013-01-09 01:23:00,55.5,52.9,30.28,NE,43,0.0,0.1,91,0.00,CLR,,0.00,WeatherDisplay:10.37,2013-01-09 06:23:00,
2013-01-09 01:28:00,55.8,53.5,30.29,East,83,5.8,5.8,92,0.00,CLR,,0.00,WeatherDisplay:10.37,2013-01-09 06:28:00,
2013-01-09 01:33:00,56.2,53.9,30.28,East,85,1.1,1.3,92,0.00,CLR,,0.00,WeatherDisplay:10.37,2013-01-09 06:33:00,
2013-01-09 01:38:00,56.5,54.2,30.28,East,79,4.6,4.6,92,0.00,CLR,,0.00,WeatherDisplay:10.37,2013-01-09 06:38:00,
2013-01-09 01:43:00,56.8,54.5,30.28,ENE,73,1.0,1.0,92,0.00,CLR,,0.00,WeatherDisplay:10.37,2013-01-09 06:43:00,
2013-01-09 01:48:00,57.1,54.8,30.28,ENE,74,1.1,0.0,92,0.00,CLR,,0.00,WeatherDisplay:10.37,2013-01-09 06:48:00,
2013-01-09 01:53:00,57.3,55.0,30.28,ENE,71,1.1,0.0,92,0.00,CLR,,0.00,WeatherDisplay:10.37,2013-01-09 06:53:00,
2013-01-09 01:58:00,57.5,55.2,30.28,ENE,71,2.3,2.3,92,0.00,CLR,,0.00,WeatherDisplay:10.37,2013-01-09 06:58:00,
2013-01-09 02:03:00,57.8,55.5,30.28,ENE,75,3.5,3.5,92,0.00,CLR,,0.00,WeatherDisplay:10.37,2013-01-09 07:03:00,
2013-01-09 02:08:00,58.1,55.8,30.28,ENE,71,5.0,5.0,92,0.00,CLR,,0.00,WeatherDisplay:10.37,2013-01-09 07:08:00,
2013-01-09 02:13:00,58.4,56.1,30.28,East,91,6.9,6.9,92,0.00,CLR,,0.00,WeatherDisplay:10.37,2013-01-09 07:13:00,
2013-01-09 02:18:00,58.9,56.6,30.28,ENE,78,4.6,4.6,92,0.00,CLR,,0.00,WeatherDisplay:10.37,2013-01-09 07:18:00,
2013-01-09 02:23:00,59.0,56.4,30.28,East,84,6.9,6.9,91,0.00,CLR,,0.00,WeatherDisplay:10.37,2013-01-09 07:23:00,
2013-01-09 02:28:00,59.0,56.4,30.28,ENE,57,1.1,1.1,91,0.00,CLR,,0.00,WeatherDisplay:10.37,2013-01-09 07:28:00,
2013-01-09 02:33:00,59.0,56.1,30.28,ENE,74,4.6,0.0,90,0.00,CLR,,0.00,WeatherDisplay:10.37,2013-01-09 07:33:00,
2013-01-09 02:38:00,59.0,56.1,30.28,East,88,6.9,6.9,90,0.00,CLR,,0.00,WeatherDisplay:10.37,2013-01-09 07:38:00,
2013-01-09 02:43:00,59.0,56.1,30.28,NE,56,3.5,3.5,90,0.00,CLR,,0.00,WeatherDisplay:10.37,2013-01-09 07:43:00,
2013-01-09 02:48:00,59.0,56.1,30.28,NE,36,1.1,1.1,90,0.00,CLR,,0.00,WeatherDisplay:10.37,2013-01-09 07:48:00,
2013-01-09 02:53:00,59.0,56.1,30.28,ENE,58,2.3,0.0,90,0.00,CLR,,0.00,WeatherDisplay:10.37,2013-01-09 07:53:00,
2013-01-09 02:58:00,59.0,56.1,30.28,NE,55,1.1,0.0,90,0.00,CLR,,0.00,WeatherDisplay:10.37,2013-01-09 07:58:00,
2013-01-09 03:03:00,59.0,56.1,30.28,NE,55,1.1,1.1,90,0.00,CLR,,0.00,WeatherDisplay:10.37,2013-01-09 08:03:00,
2013-01-09 03:08:00,59.0,56.1,30.27,ENE,74,4.0,4.0,90,0.00,CLR,,0.00,WeatherDisplay:10.37,2013-01-09 08:08:00,
2013-01-09 03:13:00,59.0,56.1,30.27,ENE,75,0.0,0.0,90,0.00,CLR,,0.00,WeatherDisplay:10.37,2013-01-09 08:13:00,
2013-01-09 03:18:00,59.0,56.1,30.27,ENE,69,0.0,0.0,90,0.00,CLR,,0.00,WeatherDisplay:10.37,2013-01-09 08:18:00,
2013-01-09 03:23:00,59.2,56.3,30.28,ENE,76,1.1,0.0,90,0.00,CLR,,0.00,WeatherDisplay:10.37,2013-01-09 08:23:00,
2013-01-09 03:28:00,59.4,56.8,30.27,ENE,75,4.6,4.6,91,0.00,CLR,,0.00,WeatherDisplay:10.37,2013-01-09 08:28:00,
2013-01-09 03:33:00,59.5,56.6,30.27,ENE,74,4.0,4.0,90,0.00,CLR,,0.00,WeatherDisplay:10.37,2013-01-09 08:33:00,
2013-01-09 03:38:00,59.6,56.7,30.28,ENE,74,1.1,0.0,90,0.00,CLR,,0.00,WeatherDisplay:10.37,2013-01-09 08:38:00,
2013-01-09 03:43:00,59.7,56.8,30.28,ENE,74,3.5,3.5,90,0.00,CLR,,0.00,WeatherDisplay:10.37,2013-01-09 08:43:00,
2013-01-09 03:48:00,59.8,56.9,30.27,East,90,1.1,1.9,90,0.00,CLR,,0.00,WeatherDisplay:10.37,2013-01-09 08:48:00,
2013-01-09 03:53:00,59.9,57.0,30.27,East,83,8.1,8.1,90,0.00,CLR,,0.00,WeatherDisplay:10.37,2013-01-09 08:53:00,
2013-01-09 03:58:00,59.9,57.0,30.28,ENE,57,0.0,0.0,90,0.00,CLR,,0.00,WeatherDisplay:10.37,2013-01-09 08:58:00,
2013-01-09 04:03:00,59.8,56.9,30.28,ENE,57,4.6,4.6,90,0.00,CLR,,0.00,WeatherDisplay:10.37,2013-01-09 09:03:00,
2013-01-09 04:08:00,59.8,56.9,30.27,ENE,57,3.5,3.5,90,0.00,CLR,,0.00,WeatherDisplay:10.37,2013-01-09 09:08:00,
2013-01-09 04:13:00,59.7,57.4,30.27,ENE,57,0.0,0.0,92,0.00,CLR,,0.00,WeatherDisplay:10.37,2013-01-09 09:13:00,
2013-01-09 04:18:00,59.6,56.7,30.27,NE,56,1.0,1.0,90,0.00,CLR,,0.00,WeatherDisplay:10.37,2013-01-09 09:18:00,
2013-01-09 04:23:00,59.6,56.7,30.27,ENE,57,3.5,3.5,90,0.00,CLR,,0.00,WeatherDisplay:10.37,2013-01-09 09:23:00,
2013-01-09 04:28:00,59.5,56.6,30.27,ENE,58,0.0,0.0,90,0.00,CLR,,0.00,WeatherDisplay:10.37,2013-01-09 09:28:00,
2013-01-09 04:33:00,59.5,56.6,30.27,ENE,59,3.5,0.0,90,0.00,CLR,,0.00,WeatherDisplay:10.37,2013-01-09 09:33:00,
2013-01-09 04:38:00,59.5,56.6,30.27,ENE,61,6.9,6.9,90,0.00,CLR,,0.00,WeatherDisplay:10.37,2013-01-09 09:38:00,
2013-01-09 04:43:00,59.5,56.9,30.27,ENE,69,2.3,0.0,91,0.00,CLR,,0.00,WeatherDisplay:10.37,2013-01-09 09:43:00,
2013-01-09 04:48:00,59.5,56.6,30.27,ENE,72,0.0,0.0,90,0.00,CLR,,0.00,WeatherDisplay:10.37,2013-01-09 09:48:00,
2013-01-09 04:53:00,59.5,56.6,30.27,ENE,74,3.5,3.5,90,0.00,CLR,,0.00,WeatherDisplay:10.37,2013-01-09 09:53:00,
2013-01-09 04:58:00,59.5,56.6,30.27,ENE,75,2.3,2.3,90,0.00,CLR,,0.00,WeatherDisplay:10.37,2013-01-09 09:58:00,
2013-01-09 05:04:00,59.6,56.7,30.27,ENE,71,3.5,3.5,90,0.00,CLR,,0.00,WeatherDisplay:10.37,2013-01-09 10:04:00,
2013-01-09 05:09:00,59.6,56.7,30.27,ENE,69,0.0,0.0,90,0.00,CLR,,0.00,WeatherDisplay:10.37,2013-01-09 10:09:00,
2013-01-09 05:14:00,59.7,56.8,30.27,ENE,74,6.9,6.9,90,0.00,CLR,,0.00,WeatherDisplay:10.37,2013-01-09 10:14:00,
2013-01-09 05:19:00,59.8,56.9,30.27,ENE,75,0.0,0.0,90,0.00,CLR,,0.00,WeatherDisplay:10.37,2013-01-09 10:19:00,
2013-01-09 05:24:00,59.8,56.9,30.27,ENE,78,3.5,3.5,90,0.00,CLR,,0.00,WeatherDisplay:10.37,2013-01-09 10:24:00,
2013-01-09 05:29:00,59.8,56.9,30.27,ENE,71,3.5,0.0,90,0.00,CLR,,0.00,WeatherDisplay:10.37,2013-01-09 10:29:00,
2013-01-09 05:34:00,59.8,56.9,30.27,ENE,76,1.1,0.0,90,0.00,CLR,,0.00,WeatherDisplay:10.37,2013-01-09 10:34:00,
2013-01-09 05:39:00,59.8,56.9,30.28,NE,55,3.5,3.5,90,0.00,CLR,,0.00,WeatherDisplay:10.37,2013-01-09 10:39:00,
2013-01-09 05:44:00,59.7,57.4,30.28,ENE,65,3.5,0.0,92,0.00,CLR,,0.00,WeatherDisplay:10.37,2013-01-09 10:44:00,
2013-01-09 05:49:00,59.7,56.8,30.28,ENE,65,0.0,0.0,90,0.00,CLR,,0.00,WeatherDisplay:10.37,2013-01-09 10:49:00,
2013-01-09 05:54:00,59.6,56.7,30.28,ENE,65,0.0,0.0,90,0.00,CLR,,0.00,WeatherDisplay:10.37,2013-01-09 10:54:00,
2013-01-09 05:59:00,59.6,56.7,30.28,ENE,65,0.0,0.0,90,0.00,CLR,,0.00,WeatherDisplay:10.37,2013-01-09 10:59:00,
2013-01-09 06:04:00,59.6,56.7,30.28,ENE,65,0.0,0.0,90,0.00,CLR,,0.00,WeatherDisplay:10.37,2013-01-09 11:04:00,
2013-01-09 06:09:00,59.5,56.6,30.28,ENE,64,0.0,0.0,90,0.00,CLR,,0.00,WeatherDisplay:10.37,2013-01-09 11:09:00,
2013-01-09 06:14:00,59.5,56.6,30.28,ENE,65,0.0,0.0,90,0.00,CLR,,0.00,WeatherDisplay:10.37,2013-01-09 11:14:00,
2013-01-09 06:19:00,59.5,56.6,30.28,ENE,64,0.0,0.0,90,0.00,CLR,,0.00,WeatherDisplay:10.37,2013-01-09 11:19:00,
2013-01-09 06:24:00,59.4,56.5,30.28,NE,55,1.1,1.1,90,0.00,CLR,,0.00,WeatherDisplay:10.37,2013-01-09 11:24:00,
2013-01-09 06:29:00,59.3,56.4,30.28,NE,56,0.0,0.0,90,0.00,CLR,,0.00,WeatherDisplay:10.37,2013-01-09 11:29:00,
2013-01-09 06:34:00,59.2,56.6,30.29,NE,56,1.1,0.0,91,0.00,CLR,,0.00,WeatherDisplay:10.37,2013-01-09 11:34:00,
2013-01-09 06:39:00,59.0,56.1,30.29,NE,56,3.5,0.0,90,0.00,CLR,,0.00,WeatherDisplay:10.37,2013-01-09 11:39:00,
2013-01-09 06:44:00,59.0,56.1,30.29,NE,56,0.0,0.0,90,0.00,CLR,,0.00,WeatherDisplay:10.37,2013-01-09 11:44:00,
2013-01-09 06:49:00,59.0,56.4,30.29,NE,56,0.0,0.0,91,0.00,CLR,,0.00,WeatherDisplay:10.37,2013-01-09 11:49:00,
2013-01-09 06:54:00,59.0,56.4,30.29,NE,48,3.5,3.5,91,0.00,CLR,,0.00,WeatherDisplay:10.37,2013-01-09 11:54:00,
2013-01-09 06:59:00,59.0,56.4,30.30,NE,48,0.0,0.0,91,0.00,CLR,,0.00,WeatherDisplay:10.37,2013-01-09 11:59:00,
2013-01-09 07:04:00,59.0,56.4,30.30,NE,48,0.0,0.0,91,0.00,CLR,,0.00,WeatherDisplay:10.37,2013-01-09 12:04:00,
2013-01-09 07:09:00,59.0,56.4,30.30,NE,41,0.0,0.0,91,0.00,CLR,,0.00,WeatherDisplay:10.37,2013-01-09 12:09:00,
2013-01-09 07:14:00,59.0,56.4,30.31,NE,40,0.0,0.0,91,0.00,CLR,,0.00,WeatherDisplay:10.37,2013-01-09 12:14:00,
2013-01-09 07:19:00,59.0,56.4,30.31,NE,41,0.0,0.0,91,0.00,CLR,,0.00,WeatherDisplay:10.37,2013-01-09 12:19:00,
2013-01-09 07:24:00,59.0,56.4,30.31,NE,41,0.0,0.0,91,0.00,CLR,,0.00,WeatherDisplay:10.37,2013-01-09 12:24:00,
2013-01-09 07:29:00,58.9,56.3,30.31,NE,40,3.5,3.5,91,0.00,CLR,,0.00,WeatherDisplay:10.37,2013-01-09 12:29:00,
2013-01-09 07:34:00,58.8,56.2,30.31,NE,40,3.5,3.5,91,0.00,CLR,,0.00,WeatherDisplay:10.37,2013-01-09 12:34:00,
2013-01-09 07:39:00,58.7,56.1,30.31,NE,39,0.0,0.0,91,0.00,CLR,,0.00,WeatherDisplay:10.37,2013-01-09 12:39:00,
2013-01-09 07:44:00,58.6,56.0,30.31,NE,40,0.0,0.0,91,0.00,CLR,,0.00,WeatherDisplay:10.37,2013-01-09 12:44:00,
2013-01-09 07:49:00,58.5,55.9,30.31,NE,41,0.0,0.0,91,0.00,CLR,,0.00,WeatherDisplay:10.37,2013-01-09 12:49:00,
2013-01-09 07:54:00,58.4,55.8,30.31,NE,39,4.6,4.6,91,0.00,CLR,,0.00,WeatherDisplay:10.37,2013-01-09 12:54:00,
2013-01-09 07:59:00,58.4,55.8,30.31,NE,39,3.5,3.5,91,0.00,CLR,,0.00,WeatherDisplay:10.37,2013-01-09 12:59:00,
2013-01-09 08:04:00,58.3,55.7,30.32,NE,38,1.1,0.0,91,0.00,CLR,,0.00,WeatherDisplay:10.37,2013-01-09 13:04:00,
2013-01-09 08:09:00,58.3,55.7,30.32,NE,39,0.0,0.0,91,0.00,CLR,,0.00,WeatherDisplay:10.37,2013-01-09 13:09:00,
2013-01-09 08:14:00,58.3,55.7,30.33,NE,38,0.0,0.0,91,0.00,CLR,,0.00,WeatherDisplay:10.37,2013-01-09 13:14:00,
2013-01-09 08:19:00,58.3,55.7,30.33,NE,39,0.0,0.0,91,0.00,CLR,,0.00,WeatherDisplay:10.37,2013-01-09 13:19:00,
2013-01-09 08:24:00,58.4,55.8,30.33,NE,39,0.0,0.0,91,0.00,CLR,,0.00,WeatherDisplay:10.37,2013-01-09 13:24:00,
2013-01-09 08:29:00,58.4,55.8,30.34,NE,39,0.0,0.0,91,0.00,CLR,,0.00,WeatherDisplay:10.37,2013-01-09 13:29:00,
2013-01-09 08:34:00,58.5,55.9,30.34,NE,39,0.0,0.0,91,0.00,CLR,,0.00,WeatherDisplay:10.37,2013-01-09 13:34:00,
2013-01-09 08:39:00,58.5,55.9,30.34,NE,39,0.0,0.0,91,0.00,CLR,,0.00,WeatherDisplay:10.37,2013-01-09 13:39:00,
2013-01-09 08:44:00,58.6,56.3,30.35,NE,39,0.0,0.0,92,0.00,CLR,,0.00,WeatherDisplay:10.37,2013-01-09 13:44:00,
2013-01-09 08:49:00,58.7,56.4,30.35,NE,38,0.0,0.0,92,0.00,CLR,,0.00,WeatherDisplay:10.37,2013-01-09 13:49:00,
2013-01-09 08:54:00,58.9,56.6,30.35,NE,39,0.0,0.0,92,0.00,CLR,,0.00,WeatherDisplay:10.37,2013-01-09 13:54:00,
2013-01-09 08:59:00,59.0,56.7,30.35,NE,39,0.0,0.0,92,0.00,CLR,,0.00,WeatherDisplay:10.37,2013-01-09 13:59:00,
2013-01-09 09:04:00,59.0,56.7,30.35,NE,39,0.0,0.0,92,0.00,CLR,,0.00,WeatherDisplay:10.37,2013-01-09 14:04:00,
2013-01-09 09:09:00,59.0,56.7,30.35,NE,39,0.0,0.0,92,0.00,CLR,,0.00,WeatherDisplay:10.37,2013-01-09 14:09:00,
2013-01-09 09:14:00,59.3,57.0,30.36,NE,38,0.0,0.0,92,0.00,CLR,,0.00,WeatherDisplay:10.37,2013-01-09 14:14:00,
2013-01-09 09:19:00,59.6,57.0,30.36,NE,39,0.0,0.0,91,0.00,CLR,,0.00,WeatherDisplay:10.37,2013-01-09 14:19:00,
2013-01-09 09:24:00,59.8,57.2,30.36,NE,38,0.0,0.0,91,0.00,CLR,,0.00,WeatherDisplay:10.37,2013-01-09 14:24:00,
2013-01-09 09:29:00,60.1,57.5,30.36,NE,38,0.0,0.0,91,0.00,CLR,,0.00,WeatherDisplay:10.37,2013-01-09 14:29:00,
2013-01-09 09:34:00,60.4,57.8,30.36,NE,39,3.0,3.0,91,0.00,CLR,,0.00,WeatherDisplay:10.37,2013-01-09 14:34:00,
2013-01-09 09:39:00,60.8,57.8,30.36,NE,38,2.3,0.0,90,0.00,CLR,,0.00,WeatherDisplay:10.37,2013-01-09 14:39:00,
2013-01-09 09:44:00,61.1,58.1,30.37,NE,40,0.0,0.0,90,0.00,CLR,,0.00,WeatherDisplay:10.37,2013-01-09 14:44:00,
2013-01-09 09:49:00,61.4,58.1,30.37,NE,40,0.0,0.0,89,0.00,CLR,,0.00,WeatherDisplay:10.37,2013-01-09 14:49:00,
2013-01-09 09:54:00,61.8,58.5,30.36,NE,42,3.5,3.5,89,0.00,CLR,,0.00,WeatherDisplay:10.37,2013-01-09 14:54:00,
2013-01-09 09:59:00,62.2,58.6,30.36,NE,38,4.6,4.6,88,0.00,CLR,,0.00,WeatherDisplay:10.37,2013-01-09 14:59:00,
2013-01-09 10:04:00,62.8,59.2,30.36,NE,38,1.1,1.1,88,0.00,CLR,,0.00,WeatherDisplay:10.37,2013-01-09 15:04:00,
2013-01-09 10:09:00,63.1,59.5,30.36,NE,56,0.0,0.0,88,0.00,CLR,,0.00,WeatherDisplay:10.37,2013-01-09 15:09:00,
2013-01-09 10:14:00,63.5,60.2,30.36,ENE,65,4.6,4.6,89,0.00,CLR,,0.00,WeatherDisplay:10.37,2013-01-09 15:14:00,
2013-01-09 10:19:00,63.9,60.0,30.36,East,82,2.3,2.3,87,0.00,CLR,,0.00,WeatherDisplay:10.37,2013-01-09 15:19:00,
2013-01-09 10:24:00,64.1,60.2,30.36,East,82,3.5,3.5,87,0.00,CLR,,0.00,WeatherDisplay:10.37,2013-01-09 15:24:00,
2013-01-09 10:29:00,64.4,60.4,30.36,East,80,0.0,0.0,87,0.00,CLR,,0.00,WeatherDisplay:10.37,2013-01-09 15:29:00,
2013-01-09 10:34:00,64.7,60.7,30.36,East,80,0.0,0.0,87,0.00,CLR,,0.00,WeatherDisplay:10.37,2013-01-09 15:34:00,
2013-01-09 10:39:00,65.0,61.0,30.36,ENE,78,0.0,0.0,87,0.00,CLR,,0.00,WeatherDisplay:10.37,2013-01-09 15:39:00,
2013-01-09 10:44:00,65.3,61.0,30.36,East,79,0.0,0.0,86,0.00,CLR,,0.00,WeatherDisplay:10.37,2013-01-09 15:44:00,
2013-01-09 10:49:00,65.6,61.3,30.36,East,79,1.1,0.0,86,0.00,CLR,,0.00,WeatherDisplay:10.37,2013-01-09 15:49:00,
2013-01-09 10:54:00,65.8,61.5,30.36,East,79,0.0,0.0,86,0.00,CLR,,0.00,WeatherDisplay:10.37,2013-01-09 15:54:00,
2013-01-09 10:59:00,66.1,61.8,30.36,East,84,4.6,4.6,86,0.00,CLR,,0.00,WeatherDisplay:10.37,2013-01-09 15:59:00,
2013-01-09 11:04:00,66.4,62.1,30.36,East,92,5.8,5.8,86,0.00,CLR,,0.00,WeatherDisplay:10.37,2013-01-09 16:04:00,
2013-01-09 11:09:00,66.6,62.3,30.36,ESE,121,3.0,3.0,86,0.00,CLR,,0.00,WeatherDisplay:10.37,2013-01-09 16:09:00,
2013-01-09 11:14:00,66.8,62.5,30.35,ESE,109,3.5,3.5,86,0.00,CLR,,0.00,WeatherDisplay:10.37,2013-01-09 16:14:00,
2013-01-09 11:19:00,67.0,62.7,30.35,SE,124,5.0,5.0,86,0.00,CLR,,0.00,WeatherDisplay:10.37,2013-01-09 16:19:00,
2013-01-09 11:24:00,67.2,62.9,30.35,SE,125,0.0,0.0,86,0.00,CLR,,0.00,WeatherDisplay:10.37,2013-01-09 16:24:00,
2013-01-09 11:29:00,67.4,63.1,30.35,ESE,103,0.0,0.0,86,0.00,CLR,,0.00,WeatherDisplay:10.37,2013-01-09 16:29:00,
2013-01-09 11:34:00,67.6,62.9,30.35,ESE,103,0.0,0.0,85,0.00,CLR,,0.00,WeatherDisplay:10.37,2013-01-09 16:34:00,
2013-01-09 11:39:00,67.8,63.1,30.35,ESE,103,0.0,0.1,85,0.00,CLR,,0.00,WeatherDisplay:10.37,2013-01-09 16:39:00,
2013-01-09 11:44:00,68.0,63.3,30.35,East,98,4.6,4.6,85,0.00,CLR,,0.00,WeatherDisplay:10.37,2013-01-09 16:44:00,
2013-01-09 11:49:00,68.1,63.4,30.35,East,100,0.0,0.0,85,0.00,CLR,,0.00,WeatherDisplay:10.37,2013-01-09 16:49:00,
2013-01-09 11:54:00,68.2,63.5,30.34,East,98,4.6,4.6,85,0.00,CLR,,0.00,WeatherDisplay:10.37,2013-01-09 16:54:00,
2013-01-09 11:59:00,68.3,63.6,30.34,East,96,3.5,3.5,85,0.00,CLR,,0.00,WeatherDisplay:10.37,2013-01-09 16:59:00,
2013-01-09 12:04:00,68.6,63.9,30.34,East,96,1.1,0.0,85,0.00,CLR,,0.00,WeatherDisplay:10.37,2013-01-09 17:04:00,
2013-01-09 12:09:00,68.8,64.1,30.34,East,96,0.0,0.0,85,0.00,CLR,,0.00,WeatherDisplay:10.37,2013-01-09 17:09:00,
2013-01-09 12:14:00,68.9,64.2,30.34,ESE,109,0.0,0.0,85,0.00,CLR,,0.00,WeatherDisplay:10.37,2013-01-09 17:14:00,
2013-01-09 12:19:00,69.0,64.3,30.33,ESE,107,1.1,0.0,85,0.00,CLR,,0.00,WeatherDisplay:10.37,2013-01-09 17:19:00,
2013-01-09 12:24:00,69.0,64.0,30.33,ESE,107,0.0,0.0,84,0.00,CLR,,0.00,WeatherDisplay:10.37,2013-01-09 17:24:00,
2013-01-09 12:29:00,69.1,64.4,30.33,ESE,106,4.0,4.0,85,0.00,CLR,,0.00,WeatherDisplay:10.37,2013-01-09 17:29:00,
2013-01-09 12:34:00,69.3,64.6,30.33,ESE,107,1.0,0.0,85,0.00,CLR,,0.00,WeatherDisplay:10.37,2013-01-09 17:34:00,
2013-01-09 12:39:00,69.3,64.3,30.32,ESE,106,3.5,3.5,84,0.00,CLR,,0.00,WeatherDisplay:10.37,2013-01-09 17:39:00,
2013-01-09 12:44:00,69.5,64.5,30.32,East,92,2.3,2.3,84,0.00,CLR,,0.00,WeatherDisplay:10.37,2013-01-09 17:44:00,
2013-01-09 12:49:00,69.7,64.6,30.32,East,92,4.6,4.6,84,0.00,CLR,,0.00,WeatherDisplay:10.37,2013-01-09 17:49:00,
2013-01-09 12:54:00,70.0,64.9,30.32,East,93,1.1,0.0,84,0.00,CLR,,0.00,WeatherDisplay:10.37,2013-01-09 17:54:00,
2013-01-09 12:59:00,70.2,64.8,30.32,ENE,75,5.8,5.8,83,0.00,CLR,,0.00,WeatherDisplay:10.37,2013-01-09 17:59:00,
2013-01-09 13:04:00,70.4,65.0,30.31,ENE,77,1.1,0.0,83,0.00,CLR,,0.00,WeatherDisplay:10.37,2013-01-09 18:04:00,
2013-01-09 13:09:00,70.5,65.1,30.31,East,86,4.6,4.6,83,0.00,CLR,,0.00,WeatherDisplay:10.37,2013-01-09 18:09:00,
2013-01-09 13:14:00,70.5,65.1,30.31,East,86,0.0,0.0,83,0.00,CLR,,0.00,WeatherDisplay:10.37,2013-01-09 18:14:00,
2013-01-09 13:19:00,70.6,65.2,30.31,East,85,3.5,3.5,83,0.00,CLR,,0.00,WeatherDisplay:10.37,2013-01-09 18:19:00,
2013-01-09 13:24:00,70.7,65.3,30.31,East,84,3.0,3.0,83,0.00,CLR,,0.00,WeatherDisplay:10.37,2013-01-09 18:24:00,
2013-01-09 13:29:00,70.9,65.5,30.31,East,85,1.1,0.0,83,0.00,CLR,,0.00,WeatherDisplay:10.37,2013-01-09 18:29:00,
2013-01-09 13:34:00,71.0,65.6,30.31,ENE,72,4.6,4.6,83,0.00,CLR,,0.00,WeatherDisplay:10.37,2013-01-09 18:34:00,
2013-01-09 13:39:00,71.2,65.8,30.31,ENE,72,3.5,3.5,83,0.00,CLR,,0.00,WeatherDisplay:10.37,2013-01-09 18:39:00,
2013-01-09 13:41:00,71.2,65.8,30.31,ENE,73,1.1,0.0,83,0.00,CLR,,0.00,WeatherDisplay:10.37,2013-01-09 18:41:00,
2013-01-09 13:44:00,71.3,65.5,30.31,ENE,77,3.5,3.8,82,0.00,CLR,,0.00,WeatherDisplay:10.37,2013-01-09 18:44:00,
2013-01-09 13:48:00,71.2,65.4,30.31,ENE,76,3.5,3.5,82,0.00,CLR,,0.00,WeatherDisplay:10.37,2013-01-09 18:48:00,
2013-01-09 13:49:00,71.2,65.4,30.31,ENE,76,3.5,3.5,82,0.00,CLR,,0.00,WeatherDisplay:10.37,2013-01-09 18:49:00,
2013-01-09 13:54:00,71.2,65.8,30.31,ENE,69,0.0,0.0,83,0.00,CLR,,0.00,WeatherDisplay:10.37,2013-01-09 18:54:00,
2013-01-09 13:59:00,71.2,65.8,30.31,ENE,69,1.1,0.0,83,0.00,CLR,,0.00,WeatherDisplay:10.37,2013-01-09 18:59:00,
2013-01-09 14:04:00,71.3,65.9,30.30,ENE,69,3.5,3.5,83,0.00,CLR,,0.00,WeatherDisplay:10.37,2013-01-09 19:04:00,
2013-01-09 14:09:00,71.3,65.9,30.30,ENE,77,3.5,3.5,83,0.00,CLR,,0.00,WeatherDisplay:10.37,2013-01-09 19:09:00,
2013-01-09 14:14:00,71.5,65.7,30.30,ENE,72,5.0,5.0,82,0.00,CLR,,0.00,WeatherDisplay:10.37,2013-01-09 19:14:00,
2013-01-09 14:19:00,71.7,65.9,30.30,ENE,71,2.3,0.0,82,0.00,CLR,,0.00,WeatherDisplay:10.37,2013-01-09 19:19:00,
2013-01-09 14:24:00,71.8,66.0,30.30,ENE,67,3.5,3.5,82,0.00,CLR,,0.00,WeatherDisplay:10.37,2013-01-09 19:24:00,
2013-01-09 14:29:00,71.9,66.1,30.30,NE,43,4.6,4.6,82,0.00,CLR,,0.00,WeatherDisplay:10.37,2013-01-09 19:29:00,
2013-01-09 14:34:00,71.9,66.1,30.30,NE,44,4.6,4.6,82,0.00,CLR,,0.00,WeatherDisplay:10.37,2013-01-09 19:34:00,
2013-01-09 14:39:00,72.0,66.2,30.30,NE,42,2.3,2.3,82,0.00,CLR,,0.00,WeatherDisplay:10.37,2013-01-09 19:39:00,
2013-01-09 14:44:00,72.1,66.3,30.30,NE,42,0.0,0.0,82,0.00,CLR,,0.00,WeatherDisplay:10.37,2013-01-09 19:44:00,
2013-01-09 14:49:00,72.1,66.3,30.30,NE,41,2.3,2.3,82,0.00,CLR,,0.00,WeatherDisplay:10.37,2013-01-09 19:49:00,
2013-01-09 14:54:00,72.0,66.2,30.31,NE,46,3.5,3.5,82,0.00,CLR,,0.00,WeatherDisplay:10.37,2013-01-09 19:54:00,
2013-01-09 14:59:00,71.9,66.1,30.31,NE,47,2.0,2.0,82,0.00,CLR,,0.00,WeatherDisplay:10.37,2013-01-09 19:59:00,
2013-01-09 15:04:00,71.9,66.1,30.31,NE,47,0.0,0.0,82,0.00,CLR,,0.00,WeatherDisplay:10.37,2013-01-09 20:04:00,
2013-01-09 15:09:00,71.7,65.9,30.31,NE,46,3.5,3.5,82,0.00,CLR,,0.00,WeatherDisplay:10.37,2013-01-09 20:09:00,
2013-01-09 15:14:00,71.7,65.9,30.31,NE,48,4.6,4.6,82,0.00,CLR,,0.00,WeatherDisplay:10.37,2013-01-09 20:14:00,
2013-01-09 15:19:00,71.7,66.3,30.31,NE,49,0.0,0.0,83,0.00,CLR,,0.00,WeatherDisplay:10.37,2013-01-09 20:19:00,
2013-01-09 15:24:00,71.7,66.3,30.31,NE,49,1.1,0.0,83,0.00,CLR,,0.00,WeatherDisplay:10.37,2013-01-09 20:24:00,
2013-01-09 15:29:00,71.6,66.2,30.31,NE,48,1.1,0.0,83,0.00,CLR,,0.00,WeatherDisplay:10.37,2013-01-09 20:29:00,
2013-01-09 15:34:00,71.6,66.2,30.32,NE,49,0.0,0.0,83,0.00,CLR,,0.00,WeatherDisplay:10.37,2013-01-09 20:34:00,
2013-01-09 15:39:00,71.6,66.5,30.31,NE,49,1.1,0.0,84,0.00,CLR,,0.00,WeatherDisplay:10.37,2013-01-09 20:39:00,
2013-01-09 15:44:00,71.7,66.6,30.31,ENE,61,4.6,4.6,84,0.00,CLR,,0.00,WeatherDisplay:10.37,2013-01-09 20:44:00,
2013-01-09 15:49:00,71.9,66.8,30.31,ENE,63,5.0,5.0,84,0.00,CLR,,0.00,WeatherDisplay:10.37,2013-01-09 20:49:00,
2013-01-09 15:54:00,71.9,66.8,30.31,ESE,102,8.1,8.1,84,0.00,CLR,,0.00,WeatherDisplay:10.37,2013-01-09 20:54:00,
2013-01-09 15:59:00,71.9,66.8,30.31,East,92,6.9,6.9,84,0.00,CLR,,0.00,WeatherDisplay:10.37,2013-01-09 20:59:00,
2013-01-09 16:04:00,71.7,66.6,30.31,East,94,8.1,8.1,84,0.00,CLR,,0.00,WeatherDisplay:10.37,2013-01-09 21:04:00,
2013-01-09 16:09:00,71.6,66.5,30.31,East,88,8.1,8.1,84,0.00,CLR,,0.00,WeatherDisplay:10.37,2013-01-09 21:09:00,
2013-01-09 16:14:00,71.5,66.4,30.31,East,83,6.9,6.9,84,0.00,CLR,,0.00,WeatherDisplay:10.37,2013-01-09 21:14:00,
2013-01-09 16:19:00,71.4,66.3,30.31,East,83,5.8,5.8,84,0.00,CLR,,0.00,WeatherDisplay:10.37,2013-01-09 21:19:00,
2013-01-09 16:24:00,71.4,66.3,30.31,East,80,3.5,3.5,84,0.00,CLR,,0.00,WeatherDisplay:10.37,2013-01-09 21:24:00,
2013-01-09 16:29:00,71.3,66.6,30.31,East,80,4.6,4.6,85,0.00,CLR,,0.00,WeatherDisplay:10.37,2013-01-09 21:29:00,
2013-01-09 16:34:00,71.3,66.6,30.31,East,81,5.0,5.0,85,0.00,CLR,,0.00,WeatherDisplay:10.37,2013-01-09 21:34:00,
2013-01-09 16:39:00,71.3,66.6,30.31,East,81,2.3,2.3,85,0.00,CLR,,0.00,WeatherDisplay:10.37,2013-01-09 21:39:00,
2013-01-09 16:44:00,71.2,66.5,30.31,East,81,1.1,0.0,85,0.00,CLR,,0.00,WeatherDisplay:10.37,2013-01-09 21:44:00,
2013-01-09 16:49:00,71.1,66.7,30.32,East,81,2.3,2.3,86,0.00,CLR,,0.00,WeatherDisplay:10.37,2013-01-09 21:49:00,
2013-01-09 16:54:00,71.0,66.6,30.32,East,81,3.5,3.5,86,0.00,CLR,,0.00,WeatherDisplay:10.37,2013-01-09 21:54:00,
2013-01-09 16:59:00,70.8,66.4,30.32,East,82,5.0,5.0,86,0.00,CLR,,0.00,WeatherDisplay:10.37,2013-01-09 21:59:00,
2013-01-09 17:04:00,70.6,66.2,30.31,East,82,4.6,4.6,86,0.00,CLR,,0.00,WeatherDisplay:10.37,2013-01-09 22:04:00,
2013-01-09 17:09:00,70.4,66.3,30.31,East,82,2.3,2.3,87,0.00,CLR,,0.00,WeatherDisplay:10.37,2013-01-09 22:09:00,
2013-01-09 17:14:00,70.3,66.2,30.31,East,81,0.0,0.0,87,0.00,CLR,,0.00,WeatherDisplay:10.37,2013-01-09 22:14:00,
2013-01-09 17:19:00,70.1,66.0,30.32,East,81,0.0,0.0,87,0.00,CLR,,0.00,WeatherDisplay:10.37,2013-01-09 22:19:00,
2013-01-09 17:24:00,69.9,65.9,30.32,East,82,0.0,0.0,87,0.00,CLR,,0.00,WeatherDisplay:10.37,2013-01-09 22:24:00,
2013-01-09 17:29:00,69.8,66.1,30.32,East,81,0.0,0.0,88,0.00,CLR,,0.00,WeatherDisplay:10.37,2013-01-09 22:29:00,
2013-01-09 17:34:00,69.6,65.9,30.32,East,82,0.0,0.0,88,0.00,CLR,,0.00,WeatherDisplay:10.37,2013-01-09 22:34:00,
2013-01-09 17:39:00,69.5,65.8,30.32,East,82,0.0,0.0,88,0.00,CLR,,0.00,WeatherDisplay:10.37,2013-01-09 22:39:00,
2013-01-09 17:44:00,69.4,65.7,30.32,East,82,0.0,0.0,88,0.00,CLR,,0.00,WeatherDisplay:10.37,2013-01-09 22:44:00,
2013-01-09 17:49:00,69.3,65.6,30.33,East,82,0.0,0.0,88,0.00,CLR,,0.00,WeatherDisplay:10.37,2013-01-09 22:49:00,
2013-01-09 17:54:00,69.2,65.8,30.33,East,82,0.0,0.0,89,0.00,CLR,,0.00,WeatherDisplay:10.37,2013-01-09 22:54:00,
2013-01-09 17:59:00,69.1,65.7,30.33,East,82,0.0,0.0,89,0.00,CLR,,0.00,WeatherDisplay:10.37,2013-01-09 22:59:00,
2013-01-09 18:04:00,69.0,65.6,30.33,East,80,0.0,0.0,89,0.00,CLR,,0.00,WeatherDisplay:10.37,2013-01-09 23:04:00,
2013-01-09 18:09:00,68.9,65.5,30.33,East,82,0.0,0.0,89,0.00,CLR,,0.00,WeatherDisplay:10.37,2013-01-09 23:09:00,
2013-01-09 18:14:00,68.8,65.4,30.33,East,80,0.0,0.0,89,0.00,CLR,,0.00,WeatherDisplay:10.37,2013-01-09 23:14:00,
2013-01-09 18:19:00,68.6,65.2,30.33,East,82,0.0,0.0,89,0.00,CLR,,0.00,WeatherDisplay:10.37,2013-01-09 23:19:00,
2013-01-09 18:24:00,68.5,65.4,30.33,East,82,4.6,4.6,90,0.00,CLR,,0.00,WeatherDisplay:10.37,2013-01-09 23:24:00,
2013-01-09 18:29:00,68.4,65.4,30.34,East,82,3.5,3.5,90,0.00,CLR,,0.00,WeatherDisplay:10.37,2013-01-09 23:29:00,
2013-01-09 18:34:00,68.3,65.3,30.34,ESE,111,0.0,0.0,90,0.00,CLR,,0.00,WeatherDisplay:10.37,2013-01-09 23:34:00,
2013-01-09 18:39:00,68.2,65.2,30.35,ESE,111,0.0,0.0,90,0.00,CLR,,0.00,WeatherDisplay:10.37,2013-01-09 23:39:00,
2013-01-09 18:44:00,68.1,65.1,30.35,ESE,115,2.3,2.3,90,0.00,CLR,,0.00,WeatherDisplay:10.37,2013-01-09 23:44:00,
2013-01-09 18:49:00,67.9,64.9,30.35,ESE,115,0.0,0.0,90,0.00,CLR,,0.00,WeatherDisplay:10.37,2013-01-09 23:49:00,
2013-01-09 18:54:00,67.8,64.8,30.35,ESE,114,0.0,0.0,90,0.00,CLR,,0.00,WeatherDisplay:10.37,2013-01-09 23:54:00,
2013-01-09 18:59:00,67.7,64.7,30.35,ESE,115,1.1,0.0,90,0.00,CLR,,0.00,WeatherDisplay:10.37,2013-01-09 23:59:00,
2013-01-09 19:04:00,67.6,64.9,30.35,ESE,114,1.1,0.0,91,0.00,CLR,,0.00,WeatherDisplay:10.37,2013-01-10 00:04:00,
2013-01-09 19:09:00,67.5,64.5,30.35,ESE,114,0.0,0.0,90,0.00,CLR,,0.00,WeatherDisplay:10.37,2013-01-10 00:09:00,
2013-01-09 19:14:00,67.4,64.4,30.35,ESE,115,4.0,4.0,90,0.00,CLR,,0.00,WeatherDisplay:10.37,2013-01-10 00:14:00,
2013-01-09 19:19:00,67.2,64.5,30.35,ESE,117,4.0,4.0,91,0.00,CLR,,0.00,WeatherDisplay:10.37,2013-01-10 00:19:00,
2013-01-09 19:24:00,67.0,64.3,30.36,ESE,122,3.5,3.5,91,0.00,CLR,,0.00,WeatherDisplay:10.37,2013-01-10 00:24:00,
2013-01-09 19:29:00,66.8,64.1,30.36,ESE,123,0.0,0.1,91,0.00,CLR,,0.00,WeatherDisplay:10.37,2013-01-10 00:29:00,
2013-01-09 19:34:00,66.7,64.0,30.36,ESE,118,0.0,0.0,91,0.00,CLR,,0.00,WeatherDisplay:10.37,2013-01-10 00:34:00,
2013-01-09 19:39:00,66.5,63.8,30.36,ESE,121,4.6,4.6,91,0.00,CLR,,0.00,WeatherDisplay:10.37,2013-01-10 00:39:00,
2013-01-09 19:44:00,66.2,63.5,30.36,ESE,113,4.6,4.6,91,0.00,CLR,,0.00,WeatherDisplay:10.37,2013-01-10 00:44:00,
2013-01-09 19:49:00,66.0,63.3,30.36,ESE,114,4.6,4.6,91,0.00,CLR,,0.00,WeatherDisplay:10.37,2013-01-10 00:49:00,
2013-01-09 19:54:00,65.8,63.1,30.36,ESE,113,3.5,3.5,91,0.00,CLR,,0.00,WeatherDisplay:10.37,2013-01-10 00:54:00,
2013-01-09 19:59:00,65.6,62.9,30.36,ESE,113,0.0,0.0,91,0.00,CLR,,0.00,WeatherDisplay:10.37,2013-01-10 00:59:00,
2013-01-09 20:04:00,65.4,62.7,30.36,ESE,114,3.5,3.5,91,0.00,CLR,,0.00,WeatherDisplay:10.37,2013-01-10 01:04:00,
2013-01-09 20:09:00,65.2,62.8,30.36,ESE,113,3.5,3.5,92,0.00,CLR,,0.00,WeatherDisplay:10.37,2013-01-10 01:09:00,
2013-01-09 20:14:00,65.0,62.6,30.36,ESE,113,0.0,0.0,92,0.00,CLR,,0.00,WeatherDisplay:10.37,2013-01-10 01:14:00,
2013-01-09 20:19:00,64.8,62.4,30.36,ESE,114,2.0,2.0,92,0.00,CLR,,0.00,WeatherDisplay:10.37,2013-01-10 01:19:00,
2013-01-09 20:24:00,64.5,62.1,30.36,ESE,115,3.5,3.5,92,0.00,CLR,,0.00,WeatherDisplay:10.37,2013-01-10 01:24:00,
2013-01-09 20:29:00,64.3,61.9,30.36,ESE,111,4.6,4.6,92,0.00,CLR,,0.00,WeatherDisplay:10.37,2013-01-10 01:29:00,
2013-01-09 20:34:00,64.1,61.7,30.36,ESE,111,2.0,2.0,92,0.00,CLR,,0.00,WeatherDisplay:10.37,2013-01-10 01:34:00,
2013-01-09 20:39:00,64.0,61.9,30.36,ESE,111,3.5,3.5,93,0.00,CLR,,0.00,WeatherDisplay:10.37,2013-01-10 01:39:00,
2013-01-09 20:44:00,63.9,61.8,30.36,ESE,110,3.5,3.5,93,0.00,CLR,,0.00,WeatherDisplay:10.37,2013-01-10 01:44:00,
2013-01-09 20:49:00,63.8,61.7,30.36,ESE,110,0.0,0.0,93,0.00,CLR,,0.00,WeatherDisplay:10.37,2013-01-10 01:49:00,
2013-01-09 20:54:00,63.6,61.5,30.36,ESE,111,3.5,3.5,93,0.00,CLR,,0.00,WeatherDisplay:10.37,2013-01-10 01:54:00,
2013-01-09 20:59:00,63.5,61.4,30.36,ESE,111,0.0,0.0,93,0.00,CLR,,0.00,WeatherDisplay:10.37,2013-01-10 01:59:00,
2013-01-09 21:04:00,63.4,61.3,30.36,ESE,110,0.0,0.0,93,0.00,CLR,,0.00,WeatherDisplay:10.37,2013-01-10 02:04:00,
2013-01-09 21:09:00,63.3,61.2,30.36,ESE,110,1.1,0.0,93,0.00,CLR,,0.00,WeatherDisplay:10.37,2013-01-10 02:09:00,
2013-01-09 21:14:00,63.2,61.1,30.36,ESE,111,3.0,3.0,93,0.00,CLR,,0.00,WeatherDisplay:10.37,2013-01-10 02:14:00,
2013-01-09 21:19:00,63.1,61.0,30.36,ESE,110,1.1,1.1,93,0.00,CLR,,0.00,WeatherDisplay:10.37,2013-01-10 02:19:00,
2013-01-09 21:24:00,63.1,61.0,30.36,ESE,109,3.5,3.5,93,0.00,CLR,,0.00,WeatherDisplay:10.37,2013-01-10 02:24:00,
2013-01-09 21:29:00,63.0,61.2,30.36,ESE,108,3.5,3.5,94,0.00,CLR,,0.00,WeatherDisplay:10.37,2013-01-10 02:29:00,
2013-01-09 21:34:00,62.9,61.1,30.36,ESE,108,3.5,3.5,94,0.00,CLR,,0.00,WeatherDisplay:10.37,2013-01-10 02:34:00,
2013-01-09 21:39:00,62.7,60.9,30.36,ESE,107,3.5,3.5,94,0.00,CLR,,0.00,WeatherDisplay:10.37,2013-01-10 02:39:00,
2013-01-09 21:44:00,62.6,60.8,30.36,ESE,108,3.5,3.5,94,0.00,CLR,,0.00,WeatherDisplay:10.37,2013-01-10 02:44:00,
2013-01-09 21:49:00,62.5,60.7,30.36,ESE,107,0.0,0.0,94,0.00,CLR,,0.00,WeatherDisplay:10.37,2013-01-10 02:49:00,
2013-01-09 21:54:00,62.5,60.7,30.36,ESE,107,3.5,3.5,94,0.00,CLR,,0.00,WeatherDisplay:10.37,2013-01-10 02:54:00,
2013-01-09 21:59:00,62.4,60.7,30.36,ESE,107,3.5,3.5,94,0.00,CLR,,0.00,WeatherDisplay:10.37,2013-01-10 02:59:00,
2013-01-09 22:04:00,62.3,60.6,30.36,ESE,108,0.0,0.0,94,0.00,CLR,,0.00,WeatherDisplay:10.37,2013-01-10 03:04:00,
2013-01-09 22:09:00,62.2,60.5,30.37,ESE,107,0.0,0.0,94,0.00,CLR,,0.00,WeatherDisplay:10.37,2013-01-10 03:09:00,
2013-01-09 22:14:00,62.1,60.4,30.37,ESE,107,1.1,0.0,94,0.00,CLR,,0.00,WeatherDisplay:10.37,2013-01-10 03:14:00,
2013-01-09 22:19:00,62.0,60.3,30.37,ESE,108,0.0,0.0,94,0.00,CLR,,0.00,WeatherDisplay:10.37,2013-01-10 03:19:00,
2013-01-09 22:24:00,61.8,60.1,30.36,ESE,107,1.1,1.1,94,0.00,CLR,,0.00,WeatherDisplay:10.37,2013-01-10 03:24:00,
2013-01-09 22:29:00,61.8,60.1,30.36,ESE,107,0.0,0.0,94,0.00,CLR,,0.00,WeatherDisplay:10.37,2013-01-10 03:29:00,
2013-01-09 22:34:00,61.7,60.0,30.37,ESE,107,0.0,0.0,94,0.00,CLR,,0.00,WeatherDisplay:10.37,2013-01-10 03:34:00,
2013-01-09 22:39:00,61.6,59.9,30.37,ESE,107,0.0,0.0,94,0.00,CLR,,0.00,WeatherDisplay:10.37,2013-01-10 03:39:00,
2013-01-09 22:44:00,61.5,59.8,30.37,ESE,107,0.0,0.0,94,0.00,CLR,,0.00,WeatherDisplay:10.37,2013-01-10 03:44:00,
2013-01-09 22:49:00,61.4,59.7,30.37,ESE,108,0.0,0.0,94,0.00,CLR,,0.00,WeatherDisplay:10.37,2013-01-10 03:49:00,
2013-01-09 22:54:00,61.3,59.6,30.37,ESE,108,0.0,0.0,94,0.00,CLR,,0.00,WeatherDisplay:10.37,2013-01-10 03:54:00,
2013-01-09 22:59:00,61.2,59.5,30.37,ESE,107,0.0,0.0,94,0.00,CLR,,0.00,WeatherDisplay:10.37,2013-01-10 03:59:00,
2013-01-09 23:04:00,61.1,59.4,30.37,ESE,107,0.0,0.0,94,0.00,CLR,,0.00,WeatherDisplay:10.37,2013-01-10 04:04:00,
2013-01-09 23:09:00,61.0,59.3,30.37,ESE,107,0.0,0.0,94,0.00,CLR,,0.00,WeatherDisplay:10.37,2013-01-10 04:09:00,
2013-01-09 23:14:00,60.9,59.2,30.37,ESE,107,0.0,0.0,94,0.00,CLR,,0.00,WeatherDisplay:10.37,2013-01-10 04:14:00,
2013-01-09 23:19:00,60.8,59.1,30.38,ESE,107,0.0,0.0,94,0.00,CLR,,0.00,WeatherDisplay:10.37,2013-01-10 04:19:00,
2013-01-09 23:24:00,60.7,59.0,30.37,ESE,107,0.0,0.0,94,0.00,CLR,,0.00,WeatherDisplay:10.37,2013-01-10 04:24:00,
2013-01-09 23:29:00,60.6,58.9,30.37,ESE,107,0.0,0.0,94,0.00,CLR,,0.00,WeatherDisplay:10.37,2013-01-10 04:29:00,
2013-01-09 23:34:00,60.5,58.8,30.37,ESE,107,0.0,0.0,94,0.00,CLR,,0.00,WeatherDisplay:10.37,2013-01-10 04:34:00,
2013-01-09 23:39:00,60.4,58.7,30.37,ESE,107,0.0,0.0,94,0.00,CLR,,0.00,WeatherDisplay:10.37,2013-01-10 04:39:00,
2013-01-09 23:44:00,60.2,58.5,30.37,ESE,107,0.0,0.0,94,0.00,CLR,,0.00,WeatherDisplay:10.37,2013-01-10 04:44:00,
2013-01-09 23:49:00,60.0,58.3,30.37,ESE,108,0.0,0.0,94,0.00,CLR,,0.00,WeatherDisplay:10.37,2013-01-10 04:49:00,
2013-01-09 23:54:00,59.9,58.2,30.37,ESE,107,0.0,0.0,94,0.00,CLR,,0.00,WeatherDisplay:10.37,2013-01-10 04:54:00,
2013-01-09 23:59:00,59.8,58.1,30.37,ESE,107,0.0,0.0,94,0.00,CLR,,0.00,WeatherDisplay:10.37,2013-01-10 04:59:00,